RH
56 23 21 19 24 36 41 32 29 30 28 20 16 36 44 43 42 58 64 61 83 89 93 88 91 90 90 90 91 92 91 91 90 91 93 93 92 91 90 89 88 83 76 73 71 71 74 74 75
48 21 21 23 29 41 36 28 32 32 26 20 25 37 40 44 44 69 76 71 81 93 94 90 90 90 90 90 91 92 91 91 91 91 92 93 93 92 90 89 85 77 72 70 70 71 72 74 75
22 22 26 25 34 34 33 26 26 24 21 19 19 23 32 44 51 53 66 72 84 94 93 91 91 90 91 91 91 92 92 91 91 91 92 93 93 93 91 88 84 75 68 67 68 71 73 74 75
18 19 22 24 25 21 22 20 16 22 21 16 22 30 32 34 37 54 66 73 84 96 91 92 92 91 90 91 91 92 92 91 90 91 92 93 92 93 91 88 84 78 70 65 65 70 72 72 73
20 21 26 30 24 19 16 14 14 22 22 16 19 34 41 42 50 61 65 64 81 96 97 94 93 91 90 90 90 91 92 91 91 91 92 92 92 92 91 87 84 80 75 70 68 72 73 72 70
19 22 30 31 22 15 16 13 12 19 19 16 25 32 39 48 50 55 55 63 75 89 96 95 93 93 92 91 91 91 92 92 91 91 91 92 92 92 90 87 84 81 79 77 75 76 74 72 70
20 24 27 26 22 18 15 12 12 14 18 15 18 26 28 32 47 48 53 57 73 81 90 95 96 94 93 93 93 93 94 93 92 92 92 92 92 91 90 86 85 83 81 81 79 78 77 75 72
15 18 23 19 18 15 12 9 11 13 14 12 16 23 26 20 36 45 49 61 73 82 84 97 98 98 98 97 94 94 94 93 93 93 92 92 91 91 90 89 86 83 82 82 81 80 79 77 75
12 22 22 17 15 12 8 10 8 9 14 13 14 18 16 16 35 53 67 70 74 75 87 96 98 98 99 98 95 96 93 93 92 92 92 93 96 96 91 88 86 85 84 83 82 81 81 80 78
17 22 17 13 12 11 9 10 10 10 12 14 13 15 13 12 14 53 67 74 76 74 80 88 96 98 98 86 94 96 96 97 95 94 96 96 98 97 87 88 86 86 85 84 85 84 82 81 89
17 18 14 12 10 11 11 11 10 12 16 15 15 12 12 14 13 17 30 63 72 69 71 78 87 91 91 84 97 95 99 95 98 98 98 98 92 96 91 98 90 96 87 94 89 93 92 92 92
18 12 11 10 10 11 11 10 11 11 10 10 9 12 10 12 14 14 20 42 55 74 69 72 73 80 78 81 95 96 95 93 93 98 98 97 94 94 90 91 87 98 91 96 97 97 90 91 82
17 13 11 10 10 12 10 10 10 10 9 9 8 9 10 12 12 14 18 51 76 67 65 73 73 70 66 75 84 87 91 96 94 94 95 94 91 90 88 85 90 90 91 93 93 92 84 79 72
13 13 12 11 10 12 11 10 13 10 10 8 10 10 9 11 11 13 16 35 76 72 69 69 74 74 62 65 74 79 79 84 87 88 88 91 87 83 83 81 80 79 82 80 82 78 79 74 75
12 15 14 13 11 11 10 12 11 10 9 9 9 10 10 10 11 12 12 21 66 76 71 73 69 78 77 74 76 69 69 74 75 76 82 87 87 83 77 80 78 74 76 81 83 75 77 82 79
20 19 24 13 12 11 12 15 11 10 10 11 10 10 12 13 13 11 12 16 43 79 86 78 64 75 73 90 90 78 70 76 67 69 76 78 83 81 79 79 78 76 88 83 82 82 82 81 81
24 25 22 16 14 13 13 14 12 12 12 12 12 12 12 13 15 17 16 22 70 79 90 86 72 69 78 74 91 91 91 79 70 74 71 73 74 77 78 73 74 83 86 89 85 85 84 84 87
26 26 20 20 15 16 14 14 11 12 12 13 14 14 15 14 14 13 19 25 49 78 83 78 72 64 76 88 90 96 97 97 92 77 87 78 81 78 82 72 73 88 80 81 92 88 89 82 78
20 22 21 17 13 17 16 17 14 13 12 12 17 17 17 17 15 17 19 25 53 70 78 74 71 75 82 86 97 96 96 95 96 96 90 81 90 86 90 74 74 94 88 70 74 84 81 80 89
21 21 20 18 16 16 20 19 17 15 15 15 15 16 18 18 17 17 20 32 43 45 54 55 53 75 68 66 86 94 95 95 97 97 95 95 89 85 94 94 91 85 92 93 93 92 82 84 88
23 23 23 22 19 21 21 22 19 17 18 15 16 18 19 18 17 19 20 32 46 53 55 52 55 59 72 70 80 83 86 87 92 91 94 94 93 90 94 96 98 96 96 96 91 93 96 94 97
25 18 18 20 27 28 22 34 25 18 19 18 16 18 18 21 21 19 37 50 50 53 60 67 69 68 73 84 85 82 86 88 92 86 88 90 86 88 90 92 96 94 94 88 92 88 90 92 92
22 19 20 27 30 31 26 32 27 23 19 20 19 18 20 16 24 40 41 40 50 57 60 65 70 76 77 74 73 76 77 87 92 93 87 88 88 92 90 94 91 97 90 92 95 92 93 93 94
19 26 28 34 34 41 29 31 31 22 20 20 20 33 34 32 41 40 40 44 54 55 60 57 60 67 68 69 72 76 80 86 91 87 89 88 87 86 90 89 93 90 91 89 92 92 91 93 97
32 32 42 45 44 48 40 49 35 28 38 36 34 36 36 39 40 40 38 40 49 49 58 53 52 65 62 61 63 60 68 81 88 90 92 90 91 93 85 86 88 96 94 92 90 92 93 95 97
45 42 51 58 60 52 48 54 41 42 44 38 33 39 35 36 37 37 37 35 42 44 48 50 49 59 58 57 57 61 76 82 83 86 92 94 95 90 90 91 92 90 91 96 95 98 96 96 97
45 54 55 63 81 81 64 48 38 48 48 44 40 40 43 39 38 39 37 37 39 44 48 50 49 49 58 55 58 61 66 65 72 76 85 89 88 80 86 92 95 95 93 92 94 95 96 97 97
44 40 67 88 83 85 73 58 52 55 58 51 56 56 50 46 39 36 34 39 36 36 39 41 47 49 56 56 53 52 57 59 67 76 80 84 89 87 87 87 93 91 94 96 96 96 95 96 97
54 58 60 67 84 99 95 69 58 61 55 53 49 51 49 58 49 37 32 34 32 32 30 32 39 48 56 59 59 61 63 61 64 69 74 79 87 86 86 84 86 89 90 95 98 98 94 96 97
49 69 83 98 93 93 96 82 58 56 48 48 47 41 41 44 42 39 34 31 31 31 34 38 41 50 52 55 60 58 60 66 68 70 73 78 82 83 86 88 86 82 83 88 97 96 92 94 97
Wind_Speed
7 8 2 3 4 5 4 6 3 7 6 4 4 10 6 3 2 3 2 10 19 17 13 10 14 17 17 17 17 16 16 16 15 15 16 15 14 14 14 13 12 12 12 12 11 11 11 10 10
5 6 4 2 5 3 6 6 10 7 6 9 8 5 7 3 6 9 7 10 17 17 13 10 14 17 17 16 16 16 15 16 16 15 15 14 14 13 13 11 10 11 11 11 11 10 10 9 8
5 2 3 3 3 6 6 6 6 10 4 5 4 5 5 3 10 9 12 15 13 13 13 11 14 16 17 17 16 16 15 16 16 15 15 14 13 13 12 11 11 10 10 10 10 10 10 9 7
3 5 4 2 5 7 7 10 14 8 5 8 6 5 4 2 5 9 18 18 13 11 11 14 14 15 16 17 16 16 16 16 16 16 15 14 14 13 12 11 11 11 11 11 11 10 10 9 8
3 3 1 4 6 7 3 9 8 6 2 6 5 4 4 5 18 20 19 17 17 11 11 12 15 14 15 16 16 16 16 16 16 16 16 15 15 13 12 11 11 11 10 10 11 10 9 9 9
3 3 1 5 6 6 2 9 7 6 2 2 7 7 3 14 19 15 17 16 15 15 13 12 15 15 14 14 15 15 15 16 16 15 15 15 14 15 15 15 15 14 14 12 11 10 10 9 9
4 4 5 4 5 7 4 8 8 8 2 3 8 6 3 6 13 16 15 15 14 13 13 10 10 12 14 14 14 14 14 14 15 16 15 15 15 14 13 14 15 15 14 13 11 11 10 9 9
3 4 3 5 3 11 2 7 5 5 5 4 3 6 6 4 12 12 14 13 13 12 12 12 10 9 8 8 14 15 16 16 16 16 15 15 15 15 15 13 12 12 11 12 12 11 10 10 10
3 2 5 7 5 8 8 5 6 7 3 2 3 8 5 5 16 12 9 8 9 9 11 12 13 12 11 9 10 12 15 16 17 15 15 11 6 7 9 9 11 12 12 12 12 11 10 9 10
5 5 7 6 3 5 11 9 2 6 7 5 4 4 4 5 3 15 11 10 12 14 12 12 13 12 11 8 8 8 7 6 7 7 8 6 6 6 8 10 14 14 13 12 11 10 9 8 3
4 7 5 10 12 5 5 7 4 3 0 2 2 3 3 4 7 9 8 12 18 11 8 12 13 12 13 9 6 6 5 6 6 9 9 7 5 4 5 4 5 5 10 4 6 5 4 6 4
2 6 8 14 15 5 7 4 3 4 6 6 4 2 5 5 2 1 5 4 14 13 11 13 13 13 13 9 10 10 8 8 7 7 9 6 4 5 5 4 5 5 4 5 5 4 6 7 6
5 9 9 14 14 8 6 9 9 6 6 8 6 6 4 3 4 4 6 5 7 13 13 14 13 14 13 10 7 7 9 8 10 9 10 9 7 6 5 6 5 7 5 6 5 5 5 6 7
7 9 12 11 13 6 6 6 3 6 6 7 5 8 9 6 7 4 6 8 7 12 15 13 11 10 10 10 10 7 7 9 8 9 10 13 9 8 7 7 7 7 6 7 6 7 6 6 5
7 6 7 8 10 8 8 6 6 9 7 9 10 8 9 9 7 9 9 9 10 12 15 15 17 12 8 5 6 7 7 7 8 8 10 13 12 11 11 7 8 8 7 6 4 6 5 5 5
3 3 2 7 6 6 7 9 8 10 9 11 11 9 8 9 9 9 9 7 10 8 11 11 10 8 5 3 5 6 7 7 8 8 7 12 13 13 8 7 8 5 3 5 5 4 4 4 4
6 2 4 9 4 3 6 10 12 10 9 11 10 10 10 9 6 8 8 7 9 11 8 7 6 7 7 6 4 4 4 5 7 5 6 10 11 11 10 8 8 7 7 5 4 4 3 4 4
4 2 5 7 5 3 9 11 20 12 11 11 10 11 9 9 10 9 9 6 10 10 11 10 7 8 6 5 4 3 2 4 4 5 5 7 6 10 8 10 9 4 5 6 4 4 3 5 7
6 5 8 11 11 4 6 7 10 10 5 7 8 7 9 10 11 7 7 8 3 7 10 12 10 9 5 2 3 2 4 3 2 3 5 6 6 8 9 9 8 5 8 9 5 5 7 8 3
8 10 12 8 10 7 4 7 5 5 5 8 9 8 9 7 8 9 8 9 13 13 14 11 9 7 4 3 2 3 1 1 3 3 5 5 7 9 7 7 6 4 4 3 5 5 8 4 6
9 9 6 8 6 2 2 6 6 7 4 6 5 8 7 13 14 10 9 6 5 5 7 8 10 10 7 6 3 3 2 2 1 3 2 2 5 8 5 8 6 4 3 4 10 7 7 10 5
16 12 8 4 2 5 2 6 4 7 9 6 10 9 10 11 11 11 7 8 11 8 7 8 8 6 4 5 4 4 3 1 2 2 1 4 4 6 7 11 8 5 8 9 8 10 12 12 14
9 6 6 1 1 3 7 2 8 5 10 10 10 11 13 16 9 10 11 11 9 7 7 8 9 8 6 6 5 4 2 2 2 2 2 1 2 4 5 6 4 5 7 8 9 8 12 10 12
6 1 5 5 4 2 5 4 2 5 6 8 9 7 10 3 10 8 8 11 8 7 8 8 9 6 7 7 6 6 4 3 3 4 4 4 1 2 5 5 7 10 9 10 11 10 12 10 4
10 7 4 5 4 5 3 3 8 3 4 5 5 6 12 12 10 8 9 9 7 8 7 7 8 6 6 7 5 4 3 3 2 2 3 6 3 0 4 4 4 6 10 12 14 13 13 10 10
2 5 6 4 4 4 5 4 5 3 5 11 11 10 13 10 8 7 6 7 7 7 7 7 6 5 5 6 6 4 5 3 1 0 0 2 2 4 3 5 6 7 6 8 13 12 13 13 12
4 4 4 4 3 2 4 6 6 4 8 10 10 9 9 8 8 7 6 7 6 4 3 4 3 2 6 7 6 5 4 4 4 2 1 1 1 3 5 6 4 7 8 9 10 10 11 10 9
4 3 1 3 2 5 4 4 6 4 7 9 8 8 9 9 9 7 6 5 4 4 3 2 4 6 8 7 5 5 6 5 5 4 4 2 3 1 3 5 6 8 7 10 10 9 9 7 7
6 5 4 4 4 4 3 6 4 6 5 6 4 5 6 6 7 6 5 2 2 1 3 3 4 4 4 6 5 5 6 7 6 5 5 4 3 3 3 3 4 5 6 8 6 9 10 7 7
3 1 3 5 3 3 2 8 3 4 7 8 6 6 8 8 7 4 5 7 5 5 7 7 5 4 5 6 6 7 6 6 6 6 6 5 6 5 6 6 4 5 6 8 8 9 9 10 10
Wind_Direction
317 310 309 35 50 59 285 273 267 281 332 254 317 114 137 21 106 197 273 137 133 137 144 159 148 138 137 135 133 133 130 126 123 121 120 121 121 121 122 123 128 131 135 136 136 136 135 138 135
322 314 30 70 108 93 272 247 231 248 227 285 116 89 50 69 63 114 95 145 137 138 140 150 154 142 140 139 138 138 137 133 131 129 129 130 130 127 125 125 129 136 143 143 141 142 144 147 146
301 205 70 133 137 177 221 236 295 272 291 318 43 56 92 104 131 137 129 132 134 135 138 149 155 149 147 145 144 143 143 141 139 138 138 136 135 134 134 136 142 149 151 150 152 156 159 159 157
353 11 2 138 231 253 234 285 295 267 342 336 133 71 47 152 128 130 132 134 131 134 136 148 157 157 154 150 150 150 150 149 148 146 145 145 147 147 148 150 157 160 164 165 168 171 168 168 172
45 72 354 271 255 252 334 270 316 264 152 348 317 98 54 40 111 131 141 141 140 143 141 151 156 159 160 155 155 156 156 154 154 155 155 157 157 158 158 162 165 169 174 178 181 181 180 181 184
20 98 45 240 258 284 276 296 314 307 50 325 67 102 78 141 132 151 146 149 149 151 153 156 160 161 161 159 159 161 161 160 160 162 164 165 168 170 171 173 176 179 181 187 192 192 191 195 197
144 102 224 230 270 300 301 320 298 314 40 331 136 91 115 140 158 161 150 149 150 151 152 154 156 163 163 163 164 164 163 164 166 168 171 172 176 180 185 188 185 185 186 191 200 203 204 203 206
172 114 238 241 204 271 283 330 303 248 271 139 84 145 160 174 141 153 148 147 148 150 155 153 152 154 157 167 169 170 170 171 174 177 178 181 182 187 190 194 199 198 200 200 199 210 219 216 215
154 101 219 227 187 271 309 340 321 299 109 54 136 130 179 137 108 121 122 143 142 160 167 161 159 160 162 164 177 175 179 179 178 181 182 180 187 194 201 200 209 211 210 213 216 216 222 241 249
142 185 234 217 229 269 320 311 245 21 5 0 71 58 84 49 81 144 158 169 180 176 180 172 164 163 162 166 171 176 177 180 184 186 185 184 191 199 200 208 209 210 213 219 227 231 235 242 253
194 203 232 274 252 239 254 298 304 140 234 211 294 156 144 87 69 63 164 187 193 191 169 177 171 171 163 164 163 175 187 182 183 187 185 189 189 202 206 207 213 209 224 224 220 232 238 234 223
253 242 224 255 257 250 252 251 239 186 224 194 221 237 118 107 89 147 118 167 187 174 181 182 183 173 186 170 175 179 182 184 189 194 193 195 200 209 213 221 225 203 206 211 220 211 217 235 242
176 259 257 251 258 237 269 257 243 202 251 278 268 269 233 172 184 242 153 142 142 168 176 191 190 182 188 185 178 185 183 186 188 191 196 190 206 204 216 207 206 208 199 201 209 227 232 237 237
220 226 253 266 261 243 211 257 215 265 241 273 254 253 258 203 219 240 162 165 187 161 173 178 193 192 188 196 191 180 185 191 194 197 199 197 203 206 204 211 218 222 212 213 209 220 225 236 229
241 252 286 259 248 226 187 267 219 247 261 259 272 252 250 234 224 224 242 175 174 186 173 182 190 190 185 181 182 189 180 182 199 202 202 204 205 208 210 208 214 219 211 213 205 226 226 236 234
346 93 310 280 225 244 125 258 263 248 238 247 253 255 247 239 225 234 245 257 179 170 181 178 186 177 146 155 176 198 190 188 202 198 198 210 210 213 210 214 220 209 199 203 209 213 234 249 245
6 245 290 286 217 252 159 263 255 252 233 236 244 243 227 226 240 244 247 235 166 169 166 176 187 188 184 192 210 249 207 208 213 193 201 213 216 212 213 219 224 186 192 207 205 222 186 218 241
242 288 280 266 289 290 277 263 264 233 221 228 242 250 219 199 224 220 202 190 163 171 167 171 171 199 245 204 232 220 204 225 214 220 209 224 216 211 210 227 230 189 205 203 184 196 197 215 228
238 242 254 275 269 234 242 254 294 253 222 233 243 221 205 208 224 225 213 162 161 156 166 174 165 186 171 148 162 220 225 252 274 249 225 229 217 218 220 232 227 200 230 235 197 189 201 234 185
241 251 270 282 271 189 301 306 300 312 245 200 208 222 235 251 257 236 225 157 177 170 178 165 168 174 179 141 154 136 123 291 273 288 282 219 217 221 206 218 233 201 214 229 252 231 244 249 191
246 222 226 215 283 216 286 319 324 302 302 301 246 227 235 222 229 239 215 163 148 126 135 151 164 162 170 150 117 93 65 23 348 316 330 348 279 260 227 188 200 205 184 212 254 238 232 263 261
253 237 226 252 40 269 88 276 302 281 303 270 271 278 256 236 236 226 137 141 144 154 142 133 141 135 111 130 106 120 149 201 228 230 249 324 309 300 263 239 212 238 301 280 252 249 241 227 247
239 232 229 196 121 49 327 87 269 335 305 290 287 286 286 251 205 151 136 128 120 127 119 102 94 92 99 93 101 96 85 223 286 290 324 246 287 250 252 261 241 241 228 233 228 247 265 256 256
294 44 39 62 90 16 249 190 275 267 273 301 302 339 335 137 122 104 98 109 115 114 112 107 102 101 103 101 93 88 65 322 332 317 327 316 338 311 291 247 239 239 241 244 250 262 261 254 296
35 48 357 346 353 219 20 358 227 294 345 297 272 109 70 57 58 69 96 105 114 115 118 118 118 128 132 113 98 87 76 50 338 317 307 321 324 8 252 277 290 242 244 249 249 252 247 226 203
21 138 148 233 212 254 342 246 255 116 10 12 58 334 81 85 93 84 84 93 115 129 133 130 134 149 169 160 171 161 137 135 147 155 66 304 314 320 275 227 254 259 258 247 239 235 232 225 207
320 61 156 129 346 105 238 283 319 52 48 40 54 50 40 49 47 59 63 65 86 119 131 153 171 202 208 203 196 203 189 175 196 235 153 204 272 325 351 324 272 242 251 253 236 223 228 226 208
119 203 16 16 330 280 292 253 233 36 51 38 32 14 20 15 12 18 30 95 103 110 136 170 199 222 226 227 223 225 233 229 224 202 230 247 252 4 338 327 329 322 290 251 251 250 244 198 202
1 0 17 98 125 217 263 256 201 151 125 99 61 8 345 348 325 346 345 299 255 235 230 230 228 239 221 221 237 244 253 251 247 233 242 243 220 236 253 256 309 320 325 304 256 249 253 234 211
178 95 95 130 283 300 293 254 44 91 11 342 311 225 223 215 262 269 303 288 268 304 334 303 289 267 231 211 207 216 225 236 242 245 248 245 241 233 218 215 240 267 282 290 255 252 244 228 214